RH
22 20 26 33 36 39 39 37 41 47 42 26 8 7 6 5 4 4 5 8 10 12 33 49 43 76 86 100 100 100 100 100 100 100 100 100 85 78 86 91 46 37 45 47 53
25 23 31 32 32 36 39 35 33 42 49 50 34 12 8 7 6 4 4 6 10 11 12 26 28 37 46 76 100 96 100 100 100 100 98 96 87 77 59 56 57 48 43 44 59
27 32 30 34 36 35 40 44 40 36 44 48 48 38 18 8 7 7 5 4 7 11 13 13 21 29 24 56 100 100 100 100 100 100 100 100 90 90 80 82 81 72 50 44 54
29 28 28 34 30 54 52 61 58 51 48 49 50 53 41 20 9 8 6 6 5 7 12 14 16 18 22 25 80 94 100 95 100 100 100 100 100 100 100 100 100 100 87 67 70
35 41 40 45 46 57 53 67 60 60 50 47 50 47 57 37 21 8 8 6 6 6 8 12 16 15 16 18 22 85 100 100 100 100 100 100 100 100 100 100 100 100 100 100 75
40 65 63 63 55 48 63 55 63 78 73 65 53 46 55 54 39 31 8 9 6 6 8 11 14 16 16 16 18 38 92 100 99 100 100 100 100 100 100 100 100 100 100 98 100
61 75 58 56 65 71 67 70 75 80 81 79 76 66 48 64 57 45 32 9 10 7 7 9 12 13 15 15 14 17 52 100 100 100 99 100 100 100 98 86 78 84 87 82 90
58 87 66 47 57 75 79 73 74 72 80 70 78 74 59 57 60 67 51 31 11 10 8 8 11 12 14 16 18 17 25 82 97 100 100 100 100 100 100 80 88 100 98 100 96
59 55 79 47 57 72 91 88 81 74 77 89 84 82 72 65 62 53 72 56 35 15 11 8 9 10 13 15 18 22 25 33 40 71 98 100 100 100 100 100 98 97 100 100 94
47 57 54 57 60 56 73 94 86 96 82 83 92 92 81 81 82 63 53 72 62 41 20 10 10 9 10 13 19 26 34 37 36 37 68 86 88 99 100 100 100 100 99 100 100
30 34 38 47 58 60 63 86 89 95 97 88 94 86 85 85 80 70 65 51 74 76 46 27 9 12 10 11 15 22 23 30 31 33 34 49 64 76 92 98 100 100 91 100 99
36 32 34 39 52 68 67 70 79 81 98 100 100 100 96 94 90 86 73 63 58 68 81 53 40 10 14 10 10 12 17 23 27 27 30 33 40 48 58 70 84 89 81 100 100
33 34 41 52 64 60 67 75 91 90 85 98 100 100 100 100 100 95 97 74 72 70 68 80 64 44 10 12 13 12 14 19 23 26 25 29 34 40 48 50 57 69 66 66 88
31 33 41 56 59 72 64 63 91 86 76 77 81 97 100 100 100 100 98 100 78 74 68 65 83 79 48 10 11 16 13 15 16 19 22 24 30 34 40 44 47 52 56 58 61
38 36 34 55 73 75 67 48 69 90 66 66 72 84 95 100 100 100 100 100 97 96 77 85 75 94 73 54 14 15 17 14 12 14 17 20 24 38 36 37 49 57 59 58 61
52 49 38 42 71 67 70 49 50 59 64 73 79 88 97 100 100 100 100 100 100 99 98 98 87 77 90 72 55 18 11 16 19 14 14 23 29 34 34 44 50 62 61 58 55
61 67 65 72 83 89 86 67 46 63 64 77 76 98 92 99 100 100 100 100 100 100 100 98 100 86 84 85 76 55 26 12 12 18 17 22 20 28 44 45 45 49 50 51 52
71 69 61 72 96 100 97 80 64 49 65 73 81 80 100 96 100 100 100 100 100 100 100 100 100 95 96 100 91 77 57 20 12 12 23 23 16 22 32 40 40 39 44 49 54
80 70 76 83 93 100 100 93 90 93 78 63 66 72 90 100 100 100 100 100 100 100 100 100 100 100 100 100 100 93 78 58 22 10 12 20 24 23 24 28 32 31 30 32 40
67 75 79 82 69 75 94 81 69 76 74 76 74 82 87 100 100 100 100 100 100 100 100 100 100 100 100 100 100 94 87 79 48 14 11 22 31 30 28 31 35 34 32 32 34
48 67 64 69 90 100 100 88 90 77 78 77 95 100 100 100 100 100 100 100 100 100 100 100 100 100 100 100 100 100 91 83 74 34 13 17 30 47 36 34 39 41 37 36 36
50 52 54 60 64 69 80 100 100 96 88 82 100 99 100 100 100 100 100 100 100 100 100 100 100 100 100 100 100 100 100 98 77 69 20 12 27 75 74 42 37 62 53 44 41
63 73 76 75 77 77 75 100 100 100 100 100 100 99 92 99 100 100 100 100 100 100 100 100 100 100 100 100 100 100 100 100 97 80 38 13 47 84 100 100 79 52 59 45 38
66 81 80 98 75 87 97 100 100 100 100 100 100 100 94 93 100 100 100 85 86 77 100 100 100 100 100 100 100 100 100 100 100 88 48 12 19 92 90 100 100 100 92 80 56
78 75 65 79 96 100 96 100 100 100 100 100 100 91 93 100 100 100 100 73 68 83 100 100 100 100 100 100 100 100 100 100 100 93 45 18 17 43 94 93 100 100 100 100 98
66 71 67 60 74 97 100 100 100 100 100 100 87 71 88 84 97 100 77 56 45 75 96 100 100 100 100 100 100 100 100 100 100 78 33 17 14 37 94 100 99 100 100 100 100
64 64 74 74 100 100 100 100 97 90 99 86 61 63 84 87 79 67 53 24 42 73 84 88 90 87 95 100 99 100 100 100 92 52 29 18 16 25 84 100 100 100 100 100 100
Wind_Speed
63 68 74 78 83 88 93 98 101 105 108 94 65 44 23 19 32 48 75 97 104 116 132 128 125 127 129 116 114 121 120 116 113 106 110 110 106 102 101 99 97 93 91 89 87
63 67 74 80 83 88 92 97 101 104 106 106 99 69 44 24 18 30 50 66 90 102 110 129 128 126 125 120 113 114 118 119 116 117 118 112 109 101 101 102 101 96 92 93 89
61 68 74 77 84 86 91 95 101 103 105 105 103 99 74 41 24 17 33 55 71 87 97 110 120 128 124 124 125 112 115 119 118 124 122 118 110 105 105 104 103 100 97 95 90
61 67 72 76 80 85 87 93 97 100 104 104 104 102 99 74 41 24 16 36 57 71 85 93 107 115 125 125 130 130 103 111 115 118 120 119 116 113 110 107 101 98 103 99 94
62 66 70 75 79 83 84 88 93 98 101 103 104 100 99 96 72 38 23 19 39 58 74 89 97 106 116 124 126 130 126 107 109 111 113 115 115 117 116 115 111 108 105 104 98
60 65 70 74 76 79 85 87 90 93 96 98 101 102 99 97 91 77 40 21 22 39 62 77 92 98 110 118 121 126 129 114 100 99 101 105 106 108 109 114 113 111 104 104 109
60 64 68 70 76 79 83 84 86 89 92 94 95 100 100 98 96 88 76 44 21 21 41 66 80 90 98 105 108 116 124 134 129 107 99 99 91 90 94 97 101 104 101 104 96
59 62 65 68 75 79 82 86 84 88 89 90 91 94 96 100 95 94 85 72 46 21 21 43 66 79 87 94 103 110 118 125 126 131 119 109 105 102 97 94 92 80 82 83 83
60 62 65 65 69 78 82 83 84 87 89 88 90 91 92 93 95 93 89 81 69 49 20 22 44 64 77 85 93 94 111 114 115 124 126 122 116 115 111 103 98 92 88 80 78
59 61 65 66 68 75 80 83 84 87 87 89 88 88 89 88 88 90 90 85 78 67 50 22 24 41 62 78 84 89 98 117 120 122 126 115 107 106 104 96 94 92 93 90 82
61 61 63 67 71 73 77 80 82 86 87 90 91 88 87 88 87 90 88 85 82 74 65 50 25 26 42 66 85 95 96 105 117 118 116 111 111 107 101 98 96 92 88 87 84
65 66 65 68 71 75 76 79 81 82 84 88 89 90 90 88 87 86 90 86 82 78 73 59 48 30 27 42 63 82 93 94 99 105 106 110 110 109 102 100 98 93 88 81 67
64 66 68 69 72 73 77 78 81 82 83 85 88 89 90 90 90 88 87 89 82 80 76 70 61 49 29 28 38 59 76 91 97 100 99 100 101 101 101 101 96 91 89 88 91
64 66 68 71 73 76 77 78 80 82 85 85 87 89 91 93 91 90 88 85 87 79 80 79 68 60 45 27 30 40 61 78 89 97 97 101 95 95 92 89 87 88 88 89 89
66 70 71 74 76 78 78 79 81 84 85 86 87 89 91 91 93 94 92 92 87 84 80 80 79 65 54 40 27 34 46 56 72 83 90 93 92 90 91 88 89 90 89 89 90
68 72 74 77 78 81 82 82 83 85 86 88 89 90 92 92 94 94 91 92 93 87 84 78 82 69 59 51 39 27 32 45 53 68 79 83 89 84 86 88 91 92 90 91 90
72 73 77 80 82 82 87 86 86 88 86 87 89 92 91 90 92 94 94 90 92 86 89 85 78 75 64 56 48 38 31 33 46 52 54 75 85 74 85 88 92 94 95 93 92
74 76 77 79 78 82 87 90 90 90 91 91 94 94 95 93 93 94 97 95 95 90 90 82 72 73 63 57 52 45 41 35 35 41 53 68 64 69 84 91 97 97 95 92 93
77 79 78 78 82 86 90 92 92 92 94 94 96 94 97 97 96 96 96 98 96 91 83 78 65 68 62 57 54 50 46 42 38 38 47 49 54 68 76 84 89 92 94 92 91
80 82 84 83 86 90 93 95 94 94 94 94 97 98 98 103 100 99 100 98 93 88 77 80 62 64 62 57 55 51 49 46 43 35 35 41 49 58 68 75 81 85 87 86 85
86 86 87 87 90 91 96 99 99 99 99 97 98 101 103 106 103 102 103 95 85 83 80 77 63 58 57 59 56 53 52 50 46 40 35 40 45 54 65 73 76 78 80 81 82
90 92 93 94 95 99 99 100 103 103 103 103 103 104 106 110 109 105 104 95 88 77 71 70 62 58 56 53 55 56 54 52 51 46 38 42 43 52 57 68 75 75 77 79 80
94 97 100 101 102 105 105 108 108 109 111 109 109 110 110 111 109 104 103 94 81 78 71 65 60 59 56 56 53 53 55 54 53 54 44 39 37 59 61 63 69 75 76 77 75
103 104 107 110 108 109 109 111 114 115 115 116 118 121 118 116 116 107 104 88 84 78 68 64 61 60 57 58 57 54 51 53 57 59 53 36 45 63 66 67 68 71 74 73 73
109 110 108 110 114 117 117 118 121 125 126 128 123 121 121 114 110 105 97 93 81 73 68 65 61 62 60 58 60 56 56 52 56 60 58 45 41 58 69 71 70 68 69 72 72
110 112 115 119 120 124 123 122 125 131 133 125 123 122 115 106 97 89 94 94 81 71 69 67 63 63 58 61 59 54 58 60 62 60 59 51 42 56 66 70 71 66 66 69 72
119 120 120 127 128 129 130 130 128 124 121 124 121 111 99 95 93 94 86 84 77 73 72 69 66 67 60 61 59 54 54 68 72 66 57 55 52 59 66 71 70 72 69 68 68
Wind_Direction
9 9 10 10 12 13 16 17 21 22 21 23 17 8 351 301 248 235 234 232 230 228 226 228 227 229 230 226 230 232 236 236 238 239 239 240 242 247 250 251 253 257 256 256 260
8 7 9 11 11 12 14 15 18 21 22 22 25 22 10 351 313 246 229 229 229 226 225 227 227 226 229 228 221 231 233 236 240 241 238 242 246 248 249 251 251 253 255 257 258
6 10 8 11 11 13 13 14 15 17 21 23 24 26 24 11 345 309 250 232 224 225 225 226 224 227 226 227 225 228 232 235 239 240 242 246 247 246 247 250 247 249 254 256 258
4 6 10 10 11 11 12 13 14 16 18 20 23 25 25 23 10 342 286 246 233 224 223 226 227 226 227 226 226 227 227 234 235 239 240 241 243 244 244 247 245 247 251 252 256
1 5 7 10 11 11 12 13 15 15 17 17 20 22 25 24 23 12 335 270 244 231 223 225 226 226 226 225 227 226 225 231 232 237 240 243 244 244 247 248 247 248 248 250 254
2 3 3 4 8 10 10 14 14 15 15 16 17 18 21 24 22 21 12 335 267 243 230 223 225 225 225 226 226 226 225 225 231 235 239 242 244 243 244 245 245 243 245 249 252
359 359 0 3 4 5 8 9 11 12 14 15 14 15 16 19 20 20 21 14 335 265 243 231 225 226 226 226 228 228 228 229 228 228 235 238 239 242 242 245 248 250 254 255 253
357 356 357 0 1 3 3 5 8 10 11 13 13 13 13 15 16 17 18 18 15 336 265 243 234 230 228 227 228 227 229 232 234 232 234 234 235 238 242 247 247 244 246 247 249
352 352 352 356 359 359 360 2 3 5 7 8 10 9 11 10 12 14 16 16 17 15 334 261 243 236 231 231 228 231 231 234 238 237 238 239 242 241 242 241 238 239 245 246 249
343 347 348 350 352 354 356 357 0 1 4 5 6 7 7 8 8 9 13 12 14 13 11 337 266 247 237 232 231 232 232 233 234 236 236 241 246 247 247 250 250 249 250 247 246
343 344 345 344 346 348 351 354 356 357 356 358 0 2 4 4 5 5 6 9 9 11 11 4 341 266 242 235 231 230 232 233 233 235 237 240 243 247 247 248 248 250 252 253 255
337 340 341 343 343 344 345 349 351 353 353 354 355 357 359 1 0 1 1 2 4 5 5 5 0 336 276 250 240 236 234 235 236 238 239 239 241 242 244 246 247 248 249 250 238
332 334 338 340 340 341 342 343 344 347 349 349 350 352 354 356 357 356 356 358 358 359 0 359 1 353 333 275 251 243 238 237 237 240 240 240 241 244 245 246 248 249 250 250 250
331 332 336 337 338 339 340 341 342 342 342 343 346 347 349 350 351 353 352 351 353 354 354 354 354 355 349 320 275 252 242 237 238 240 241 241 239 242 245 247 249 251 252 252 251
327 329 332 333 335 336 336 337 338 338 340 340 341 342 343 345 346 347 345 348 347 346 348 347 350 349 351 341 314 268 256 250 244 241 240 243 241 244 246 246 246 247 246 247 248
323 325 326 328 331 332 333 334 336 336 338 338 339 340 340 341 341 341 342 342 342 342 341 342 341 344 344 344 338 303 280 259 251 247 243 243 242 240 243 243 245 245 246 246 247
318 321 323 323 323 328 329 330 331 331 334 334 335 336 336 337 337 337 337 337 337 337 338 337 334 339 338 341 339 331 305 277 260 250 246 240 240 236 241 243 243 244 244 245 245
316 319 319 320 320 322 326 326 326 327 327 329 329 330 332 334 334 333 333 332 333 332 335 332 333 333 333 332 333 333 324 302 268 255 244 240 239 230 231 235 238 239 240 240 242
311 316 316 317 317 317 320 322 323 321 324 324 323 327 327 327 329 330 332 328 329 327 330 327 329 327 328 329 329 328 324 316 301 269 247 242 239 234 233 235 238 240 240 239 240
311 311 313 315 317 316 316 318 320 320 319 321 322 322 323 323 325 326 327 325 325 323 324 322 324 323 322 324 324 322 319 315 312 293 259 238 232 235 233 236 237 238 238 239 239
311 310 310 312 313 314 315 315 315 316 315 316 316 317 319 319 321 323 324 322 321 320 318 317 317 318 318 317 318 315 318 313 310 307 275 238 228 232 233 233 236 238 238 238 238
310 310 311 311 310 311 312 312 312 313 314 313 313 314 314 314 316 320 321 319 320 315 310 311 311 314 312 308 310 310 313 309 307 308 289 252 226 230 235 236 234 235 237 236 236
308 308 310 309 309 308 309 309 309 309 311 311 310 310 311 312 313 316 317 316 314 310 307 305 305 307 306 303 303 304 305 304 304 303 296 269 214 227 227 232 236 236 238 238 236
307 307 308 308 308 309 308 308 307 307 307 308 307 306 306 307 307 311 311 312 310 306 301 300 300 301 300 300 299 300 298 299 298 300 296 273 232 224 224 227 230 233 237 238 239
305 305 305 306 307 306 305 303 304 305 306 304 306 305 305 306 306 307 308 307 305 301 297 295 296 295 296 296 296 297 297 293 295 297 291 276 235 229 227 225 228 232 235 238 240
304 305 302 302 304 304 304 303 302 302 302 304 305 306 304 306 307 305 305 305 301 297 294 291 292 291 292 293 293 295 295 297 296 290 283 270 240 228 227 227 227 228 234 237 241
305 305 305 305 303 302 301 301 303 304 302 301 303 304 304 305 304 304 303 302 297 295 292 292 289 288 291 291 289 295 293 293 293 288 279 263 244 229 224 226 227 225 227 231 238